Regional Weather Roundup
Issued by NWS

Home | Current Version | Previous Version | Graphics & Text | Print | Product List | Glossary On
Versions: 1 2 3 4 5 6 7 8 9 10 11 12 13 14 15 16 17 18 19 20 21 22 23 24 25 26 27 28 29 30 31 32 33 34 35 36 37 38 39 40 41 42 43 44 45 46 47 48 49 50
609
ASUS45 KCYS 070810
RWRWY

WYOMING REGIONAL WEATHER ROUNDUP
NATIONAL WEATHER SERVICE CHEYENNE WY
100 AM MST WED DEC 07 2016

NOTE:  "FAIR" INDICATES FEW OR NO CLOUDS BELOW 12,000 FEET
WITH NO SIGNIFICANT WEATHER AND/OR OBSTRUCTIONS TO VISIBILITY.

WYZ001-070900-
YELLOWSTONE NATIONAL PARK

CITY           SKY/WX    TMP DP  RH WIND       PRES   REMARKS
LK YELLOWSTONE   N/A     -4  -7  87 CALM      29.83R
W YELLOWSTONE  NOT AVBL

$$
WYZ002>013-054>058-071-098>099-070900-
NORTHERN WYOMING

CITY           SKY/WX    TMP DP  RH WIND       PRES   REMARKS
JACKSON        CLOUDY     0  -2  92 E3        29.89R
CODY           LGT SNOW   5  -1  76 N8        30.07R WCI  -8
GREYBULL       FAIR       8   2  76 NW6       30.12R WCI  -2
WORLAND        CLOUDY    11   4  73 NW12      30.10R WCI  -3
SHERIDAN       CLOUDY     2  -3  80 NW16      30.18R HAZE    WCI -18
BUFFALO        FLURRIES   4  -3  73 NW14G25   30.07R WCI -14
GILLETTE       CLOUDY     2  -1  88 N7        30.11R WCI -11
HULETT         LGT SNOW   3  -2  78 W3        30.13R
NEWCASTLE      FAIR       0  -8  71 N16       30.08F WCI -21

$$
WYZ014>020-022>026-101>103-070900-
CENTRAL WYOMING

CITY           SKY/WX    TMP DP  RH WIND       PRES   REMARKS
BIG PINEY      LGT SNOW  -1  -5  82 NW6       29.85R FOG     WCI -13
PINEDALE       LGT SNOW   5   1  85 N6        29.84R WCI  -6
DUBOIS         LGT SNOW   3   0  85 SE9       29.84R WCI -11
LANDER         LGT SNOW   6   2  83 CALM      29.98R FOG
RIVERTON       FLURRIES   6   0  76 E3        30.00R
CASPER         CLOUDY     2  -2  83 N12       30.02R WCI -15
DOUGLAS        LGT SNOW   5   0  79 NW6       30.05R WCI  -6

$$
WYZ021-027>030-104>119-070900-
SOUTHERN WYOMING

CITY           SKY/WX    TMP DP  RH WIND       PRES   REMARKS
EVANSTON       MOCLDY     4  -2  76 SW9       29.85R WCI -10
FORT BRIDGER   FAIR      10   5  78 SW12      29.88R WCI  -4
ROCK SPRINGS   CLOUDY     8   5  87 NW5       29.86R WCI   0
DIXON          CLOUDY    14   7  73 NW3       29.87R
RAWLINS        FAIR       0  -7  72 N8        29.84R WCI -14
SARATOGA       CLOUDY     7   3  85 NW7       29.82R WCI  -5
LARAMIE        CLOUDY     9   1  70 SE14      29.76R WCI  -7
CHEYENNE       LGT SNOW   7   2  80 N10       29.89R WCI  -8
TORRINGTON     CLOUDY    10   2  69 N13       30.05R WCI  -5
PINE BLUFFS    CLOUDY    14  10  85 NE10G22   29.95R WCI   1

$$




USA.gov is the U.S. government's official web portal to all federal, state and local government web resources and services.